Location: ?ern� Novina
(50.6762°N, 14.8696°E)
Time: 03:07:00
(UTC+00:00)

Okean 1 - Pass Details

Date: 03 March 2021
Orbit: 539 x 553 km, 82.5° (Epoch: 13 April)

Event Time Altitude Azimuth Distance (km) Brightness Sun altitude
Rises 17:52:24 0° 347° (NNW) 2,733 7.1 -11.4°
Reaches altitude 10° 17:54:35 10° 345° (NNW) 1,837 6.2 -11.7°
Maximum altitude 17:58:35 67° 263° (W) 604 3.7 -12.4°
Drops below altitude 10° 18:02:35 10° 181° (S) 1,828 5.9 -13.0°
Sets 18:04:45 0° 179° (S) 2,719 6.8 -13.3°
